owner,sensor,date,latitude,longitude,sea_surface_height_above_sea_level,qcFlag 
TCOON,ioos:station:TCOON:013:1,2017-01-01T00:18:00Z,27.4847,-97.3181,0.822,1111122 
TCOON,ioos:station:TCOON:013:1,2017-01-01T01:18:00Z,27.4847,-97.3181,0.828,1111122 
TCOON,ioos:station:TCOON:013:1,2017-01-01T02:18:00Z,27.4847,-97.3181,0.837,1111122 
TCOON,ioos:station:TCOON:013:1,2017-01-01T03:18:00Z,27.4847,-97.3181,0.847,1111122 
TCOON,ioos:station:TCOON:013:1,2017-01-01T04:30:00Z,27.4847,-97.3181,0.859,1111122 
TCOON,ioos:station:TCOON:013:1,2017-01-01T05:24:00Z,27.4847,-97.3181,0.864,1111122 
TCOON,ioos:station:TCOON:013:1,2017-01-01T06:18:00Z,27.4847,-97.3181,0.868,1111122 
TCOON,ioos:station:TCOON:013:1,2017-01-01T07:18:00Z,27.4847,-97.3181,0.874,1111122 
TCOON,ioos:station:TCOON:013:1,2017-01-01T08:18:00Z,27.4847,-97.3181,0.874,1111122 
TCOON,ioos:station:TCOON:013:1,2017-01-01T09:24:00Z,27.4847,-97.3181,0.877,1111122 
TCOON,ioos:station:TCOON:013:1,2017-01-01T10:18:00Z,27.4847,-97.3181,0.881,1111122 
TCOON,ioos:station:TCOON:013:1,2017-01-01T11:18:00Z,27.4847,-97.3181,0.881,1111122 
TCOON,ioos:station:TCOON:013:1,2017-01-01T12:18:00Z,27.4847,-97.3181,0.88,1111122 
TCOON,ioos:station:TCOON:013:1,2017-01-01T13:18:00Z,27.4847,-97.3181,0.877,1111122 
TCOON,ioos:station:TCOON:013:1,2017-01-01T14:18:00Z,27.4847,-97.3181,0.861,1111122 
TCOON,ioos:station:TCOON:013:1,2017-01-01T15:18:00Z,27.4847,-97.3181,0.871,1111122 
TCOON,ioos:station:TCOON:013:1,2017-01-01T16:18:00Z,27.4847,-97.3181,0.855,1111122 
TCOON,ioos:station:TCOON:013:1,2017-01-01T17:18:00Z,27.4847,-97.3181,0.847,1111122 
TCOON,ioos:station:TCOON:013:1,2017-01-01T18:24:00Z,27.4847,-97.3181,0.844,1111122 
TCOON,ioos:station:TCOON:013:1,2017-01-01T19:18:00Z,27.4847,-97.3181,0.847,1111122 
TCOON,ioos:station:TCOON:013:1,2017-01-01T20:18:00Z,27.4847,-97.3181,0.845,1111122 
TCOON,ioos:station:TCOON:013:1,2017-01-01T21:18:00Z,27.4847,-97.3181,0.846,1111122 
TCOON,ioos:station:TCOON:013:1,2017-01-01T22:18:00Z,27.4847,-97.3181,0.84,1111122 
TCOON,ioos:station:TCOON:013:1,2017-01-02T00:18:00Z,27.4847,-97.3181,0.835,1111122 
TCOON,ioos:station:TCOON:013:1,2017-01-02T01:18:00Z,27.4847,-97.3181,0.832,1111122 
TCOON,ioos:station:TCOON:013:1,2017-01-02T02:18:00Z,27.4847,-97.3181,0.83,1111122 
TCOON,ioos:station:TCOON:013:1,2017-01-02T03:18:00Z,27.4847,-97.3181,0.833,1111122 
TCOON,ioos:station:TCOON:013:1,2017-01-02T04:18:00Z,27.4847,-97.3181,0.842,1111122 
TCOON,ioos:station:TCOON:013:1,2017-01-02T05:18:00Z,27.4847,-97.3181,0.844,1111122 
TCOON,ioos:station:TCOON:013:1,2017-01-02T06:18:00Z,27.4847,-97.3181,0.856,1111122 
TCOON,ioos:station:TCOON:013:1,2017-01-02T07:18:00Z,27.4847,-97.3181,0.857,1111122 
TCOON,ioos:station:TCOON:013:1,2017-01-02T08:18:00Z,27.4847,-97.3181,0.871,1111122 
TCOON,ioos:station:TCOON:013:1,2017-01-02T09:18:00Z,27.4847,-97.3181,0.874,1111122 
TCOON,ioos:station:TCOON:013:1,2017-01-02T10:18:00Z,27.4847,-97.3181,0.883,1111122 
TCOON,ioos:station:TCOON:013:1,2017-01-02T11:18:00Z,27.4847,-97.3181,0.883,1111122 
TCOON,ioos:station:TCOON:013:1,2017-01-02T12:18:00Z,27.4847,-97.3181,0.883,1111122 
TCOON,ioos:station:TCOON:013:1,2017-01-02T13:24:00Z,27.4847,-97.3181,0.88,1111122 
TCOON,ioos:station:TCOON:013:1,2017-01-02T14:24:00Z,27.4847,-97.3181,0.876,1111122 
TCOON,ioos:station:TCOON:013:1,2017-01-02T15:18:00Z,27.4847,-97.3181,0.869,1111122 
TCOON,ioos:station:TCOON:013:1,2017-01-02T16:18:00Z,27.4847,-97.3181,0.863,1111122 
TCOON,ioos:station:TCOON:013:1,2017-01-02T17:18:00Z,27.4847,-97.3181,0.856,1111122 
TCOON,ioos:station:TCOON:013:1,2017-01-02T18:18:00Z,27.4847,-97.3181,0.85,1111122 
TCOON,ioos:station:TCOON:013:1,2017-01-02T19:18:00Z,27.4847,-97.3181,0.837,1111122 
TCOON,ioos:station:TCOON:013:1,2017-01-02T20:18:00Z,27.4847,-97.3181,0.824,1111122 
TCOON,ioos:station:TCOON:013:1,2017-01-02T21:18:00Z,27.4847,-97.3181,0.815,1111122 
TCOON,ioos:station:TCOON:013:1,2017-01-02T22:18:00Z,27.4847,-97.3181,0.801,1111122 
TCOON,ioos:station:TCOON:013:1,2017-01-02T23:18:00Z,27.4847,-97.3181,0.798,1111122 
TCOON,ioos:station:TCOON:013:1,2017-01-03T00:18:00Z,27.4847,-97.3181,0.796,1111122 
TCOON,ioos:station:TCOON:013:1,2017-01-03T01:18:00Z,27.4847,-97.3181,0.795,1111122 
TCOON,ioos:station:TCOON:013:1,2017-01-03T02:18:00Z,27.4847,-97.3181,0.792,1111122 
TCOON,ioos:station:TCOON:013:1,2017-01-03T03:18:00Z,27.4847,-97.3181,0.791,1111122 
TCOON,ioos:station:TCOON:013:1,2017-01-03T04:18:00Z,27.4847,-97.3181,0.791,1111122 
TCOON,ioos:station:TCOON:013:1,2017-01-03T05:18:00Z,27.4847,-97.3181,0.794,1111122 
TCOON,ioos:station:TCOON:013:1,2017-01-03T06:24:00Z,27.4847,-97.3181,0.798,1111122 
TCOON,ioos:station:TCOON:013:1,2017-01-03T07:24:00Z,27.4847,-97.3181,0.803,1111122 
TCOON,ioos:station:TCOON:013:1,2017-01-03T08:18:00Z,27.4847,-97.3181,0.806,1111122 
TCOON,ioos:station:TCOON:013:1,2017-01-03T09:18:00Z,27.4847,-97.3181,0.81,1111122 
TCOON,ioos:station:TCOON:013:1,2017-01-03T10:18:00Z,27.4847,-97.3181,0.812,1111122 
TCOON,ioos:station:TCOON:013:1,2017-01-03T11:18:00Z,27.4847,-97.3181,0.813,1111122 
TCOON,ioos:station:TCOON:013:1,2017-01-03T12:18:00Z,27.4847,-97.3181,0.813,1111122 
TCOON,ioos:station:TCOON:013:1,2017-01-03T13:18:00Z,27.4847,-97.3181,0.813,1111122 
TCOON,ioos:station:TCOON:013:1,2017-01-03T14:18:00Z,27.4847,-97.3181,0.809,1111122 
TCOON,ioos:station:TCOON:013:1,2017-01-03T15:18:00Z,27.4847,-97.3181,0.806,1111122 
TCOON,ioos:station:TCOON:013:1,2017-01-03T16:18:00Z,27.4847,-97.3181,0.8,1111122 
TCOON,ioos:station:TCOON:013:1,2017-01-03T17:18:00Z,27.4847,-97.3181,0.794,1111122 
TCOON,ioos:station:TCOON:013:1,2017-01-03T18:18:00Z,27.4847,-97.3181,0.792,1111122 
TCOON,ioos:station:TCOON:013:1,2017-01-03T19:18:00Z,27.4847,-97.3181,0.796,1111122 
TCOON,ioos:station:TCOON:013:1,2017-01-03T20:18:00Z,27.4847,-97.3181,0.793,1111122 
TCOON,ioos:station:TCOON:013:1,2017-01-03T21:18:00Z,27.4847,-97.3181,0.791,1111122 
TCOON,ioos:station:TCOON:013:1,2017-01-03T22:18:00Z,27.4847,-97.3181,0.785,1111122 
TCOON,ioos:station:TCOON:013:1,2017-01-03T23:24:00Z,27.4847,-97.3181,0.778,1111122 
TCOON,ioos:station:TCOON:013:1,2017-01-04T00:18:00Z,27.4847,-97.3181,0.777,1111122 
TCOON,ioos:station:TCOON:013:1,2017-01-04T01:18:00Z,27.4847,-97.3181,0.774,1111122 
TCOON,ioos:station:TCOON:013:1,2017-01-04T02:18:00Z,27.4847,-97.3181,0.768,1111122 
TCOON,ioos:station:TCOON:013:1,2017-01-04T03:18:00Z,27.4847,-97.3181,0.768,1111122 
TCOON,ioos:station:TCOON:013:1,2017-01-04T05:24:00Z,27.4847,-97.3181,0.778,1111122 
TCOON,ioos:station:TCOON:013:1,2017-01-04T06:18:00Z,27.4847,-97.3181,0.791,1111122 
TCOON,ioos:station:TCOON:013:1,2017-01-04T07:18:00Z,27.4847,-97.3181,0.794,1111122 
TCOON,ioos:station:TCOON:013:1,2017-01-04T08:18:00Z,27.4847,-97.3181,0.789,1111122 
TCOON,ioos:station:TCOON:013:1,2017-01-04T10:06:00Z,27.4847,-97.3181,0.792,1111122 
TCOON,ioos:station:TCOON:013:1,2017-01-04T10:18:00Z,27.4847,-97.3181,0.795,1111122 
TCOON,ioos:station:TCOON:013:1,2017-01-04T11:18:00Z,27.4847,-97.3181,0.791,1111122 
TCOON,ioos:station:TCOON:013:1,2017-01-04T12:18:00Z,27.4847,-97.3181,0.796,1111122 
TCOON,ioos:station:TCOON:013:1,2017-01-04T13:18:00Z,27.4847,-97.3181,0.803,1111122 
TCOON,ioos:station:TCOON:013:1,2017-01-04T14:18:00Z,27.4847,-97.3181,0.803,1111122 
TCOON,ioos:station:TCOON:013:1,2017-01-04T15:18:00Z,27.4847,-97.3181,0.802,1111122 
TCOON,ioos:station:TCOON:013:1,2017-01-04T16:18:00Z,27.4847,-97.3181,0.805,1111122 
TCOON,ioos:station:TCOON:013:1,2017-01-04T17:18:00Z,27.4847,-97.3181,0.803,1111122 
TCOON,ioos:station:TCOON:013:1,2017-01-04T18:24:00Z,27.4847,-97.3181,0.798,1111122 
TCOON,ioos:station:TCOON:013:1,2017-01-04T19:18:00Z,27.4847,-97.3181,0.8,1111122 
TCOON,ioos:station:TCOON:013:1,2017-01-04T20:18:00Z,27.4847,-97.3181,0.796,1111122 
TCOON,ioos:station:TCOON:013:1,2017-01-04T21:18:00Z,27.4847,-97.3181,0.786,1111122 
TCOON,ioos:station:TCOON:013:1,2017-01-04T22:18:00Z,27.4847,-97.3181,0.781,1111122 
TCOON,ioos:station:TCOON:013:1,2017-01-04T23:18:00Z,27.4847,-97.3181,0.775,1111122 
TCOON,ioos:station:TCOON:013:1,2017-01-05T00:18:00Z,27.4847,-97.3181,0.768,1111122 
TCOON,ioos:station:TCOON:013:1,2017-01-05T01:18:00Z,27.4847,-97.3181,0.761,1111122 
TCOON,ioos:station:TCOON:013:1,2017-01-05T02:18:00Z,27.4847,-97.3181,0.759,1111122 
TCOON,ioos:station:TCOON:013:1,2017-01-05T03:24:00Z,27.4847,-97.3181,0.762,1111122 
TCOON,ioos:station:TCOON:013:1,2017-01-05T04:18:00Z,27.4847,-97.3181,0.767,1111122 
TCOON,ioos:station:TCOON:013:1,2017-01-05T05:18:00Z,27.4847,-97.3181,0.771,1111122 
TCOON,ioos:station:TCOON:013:1,2017-01-05T06:18:00Z,27.4847,-97.3181,0.779,1111122 
TCOON,ioos:station:TCOON:013:1,2017-01-05T07:18:00Z,27.4847,-97.3181,0.786,1111122 
TCOON,ioos:station:TCOON:013:1,2017-01-05T08:18:00Z,27.4847,-97.3181,0.798,1111122 
TCOON,ioos:station:TCOON:013:1,2017-01-05T09:18:00Z,27.4847,-97.3181,0.806,1111122 
TCOON,ioos:station:TCOON:013:1,2017-01-05T10:18:00Z,27.4847,-97.3181,0.808,1111122 
TCOON,ioos:station:TCOON:013:1,2017-01-05T11:18:00Z,27.4847,-97.3181,0.817,1111122 
TCOON,ioos:station:TCOON:013:1,2017-01-05T12:24:00Z,27.4847,-97.3181,0.813,1111122 
TCOON,ioos:station:TCOON:013:1,2017-01-05T13:18:00Z,27.4847,-97.3181,0.815,1111122 
TCOON,ioos:station:TCOON:013:1,2017-01-05T14:18:00Z,27.4847,-97.3181,0.807,1111122 
TCOON,ioos:station:TCOON:013:1,2017-01-05T15:18:00Z,27.4847,-97.3181,0.804,1111122 
TCOON,ioos:station:TCOON:013:1,2017-01-05T16:18:00Z,27.4847,-97.3181,0.796,1111122 
TCOON,ioos:station:TCOON:013:1,2017-01-05T17:18:00Z,27.4847,-97.3181,0.789,1111122 
TCOON,ioos:station:TCOON:013:1,2017-01-05T18:18:00Z,27.4847,-97.3181,0.785,1111122 
TCOON,ioos:station:TCOON:013:1,2017-01-05T19:18:00Z,27.4847,-97.3181,0.786,1111122 
TCOON,ioos:station:TCOON:013:1,2017-01-05T20:24:00Z,27.4847,-97.3181,0.791,1111122 
TCOON,ioos:station:TCOON:013:1,2017-01-05T21:18:00Z,27.4847,-97.3181,0.795,1111122 
TCOON,ioos:station:TCOON:013:1,2017-01-05T22:18:00Z,27.4847,-97.3181,0.8,1111122 
TCOON,ioos:station:TCOON:013:1,2017-01-05T23:18:00Z,27.4847,-97.3181,0.789,1111122 
TCOON,ioos:station:TCOON:013:1,2017-01-06T00:18:00Z,27.4847,-97.3181,0.784,1111122 
TCOON,ioos:station:TCOON:013:1,2017-01-06T01:18:00Z,27.4847,-97.3181,0.779,1111122 
TCOON,ioos:station:TCOON:013:1,2017-01-06T02:18:00Z,27.4847,-97.3181,0.775,1111122 
TCOON,ioos:station:TCOON:013:1,2017-01-06T03:18:00Z,27.4847,-97.3181,0.772,1111122 
TCOON,ioos:station:TCOON:013:1,2017-01-06T04:18:00Z,27.4847,-97.3181,0.774,1111122 
TCOON,ioos:station:TCOON:013:1,2017-01-06T05:36:00Z,27.4847,-97.3181,0.773,1111122 
TCOON,ioos:station:TCOON:013:1,2017-01-06T06:18:00Z,27.4847,-97.3181,0.777,1111122 
TCOON,ioos:station:TCOON:013:1,2017-01-06T08:18:00Z,27.4847,-97.3181,0.775,1111122 
TCOON,ioos:station:TCOON:013:1,2017-01-06T09:30:00Z,27.4847,-97.3181,0.775,1111122 
TCOON,ioos:station:TCOON:013:1,2017-01-06T10:48:00Z,27.4847,-97.3181,0.783,1111122 
TCOON,ioos:station:TCOON:013:1,2017-01-06T11:18:00Z,27.4847,-97.3181,0.787,1111122 
TCOON,ioos:station:TCOON:013:1,2017-01-06T12:24:00Z,27.4847,-97.3181,0.789,1111122 
TCOON,ioos:station:TCOON:013:1,2017-01-06T13:18:00Z,27.4847,-97.3181,0.798,1111122 
TCOON,ioos:station:TCOON:013:1,2017-01-06T14:24:00Z,27.4847,-97.3181,0.797,1111122 
TCOON,ioos:station:TCOON:013:1,2017-01-06T15:18:00Z,27.4847,-97.3181,0.799,1111122 
TCOON,ioos:station:TCOON:013:1,2017-01-06T16:18:00Z,27.4847,-97.3181,0.808,1111122 
TCOON,ioos:station:TCOON:013:1,2017-01-06T17:18:00Z,27.4847,-97.3181,0.806,1111122 
TCOON,ioos:station:TCOON:013:1,2017-01-06T18:18:00Z,27.4847,-97.3181,0.815,1111122 
TCOON,ioos:station:TCOON:013:1,2017-01-06T19:24:00Z,27.4847,-97.3181,0.82,1111122 
TCOON,ioos:station:TCOON:013:1,2017-01-06T20:18:00Z,27.4847,-97.3181,0.819,1111122 
TCOON,ioos:station:TCOON:013:1,2017-01-06T21:18:00Z,27.4847,-97.3181,0.829,1111122 
TCOON,ioos:station:TCOON:013:1,2017-01-06T22:18:00Z,27.4847,-97.3181,0.834,1111122 
TCOON,ioos:station:TCOON:013:1,2017-01-07T00:18:00Z,27.4847,-97.3181,0.842,1111122 
TCOON,ioos:station:TCOON:013:1,2017-01-07T01:18:00Z,27.4847,-97.3181,0.855,1111122 
TCOON,ioos:station:TCOON:013:1,2017-01-07T02:18:00Z,27.4847,-97.3181,0.848,1111122 
TCOON,ioos:station:TCOON:013:1,2017-01-07T03:18:00Z,27.4847,-97.3181,0.86,1111122 
TCOON,ioos:station:TCOON:013:1,2017-01-07T04:18:00Z,27.4847,-97.3181,0.854,1111122 
TCOON,ioos:station:TCOON:013:1,2017-01-07T05:18:00Z,27.4847,-97.3181,0.863,1111122 
TCOON,ioos:station:TCOON:013:1,2017-01-07T06:18:00Z,27.4847,-97.3181,0.873,1111122 
TCOON,ioos:station:TCOON:013:1,2017-01-07T07:18:00Z,27.4847,-97.3181,0.874,1111122 
TCOON,ioos:station:TCOON:013:1,2017-01-07T08:18:00Z,27.4847,-97.3181,0.886,1111122 
TCOON,ioos:station:TCOON:013:1,2017-01-07T09:24:00Z,27.4847,-97.3181,0.883,1111122 
TCOON,ioos:station:TCOON:013:1,2017-01-07T10:18:00Z,27.4847,-97.3181,0.886,1111122 
TCOON,ioos:station:TCOON:013:1,2017-01-07T11:18:00Z,27.4847,-97.3181,0.89,1111122 
TCOON,ioos:station:TCOON:013:1,2017-01-07T12:18:00Z,27.4847,-97.3181,0.887,1111122 
TCOON,ioos:station:TCOON:013:1,2017-01-07T13:18:00Z,27.4847,-97.3181,0.88,1111122 
TCOON,ioos:station:TCOON:013:1,2017-01-07T14:18:00Z,27.4847,-97.3181,0.884,1111122 
TCOON,ioos:station:TCOON:013:1,2017-01-07T15:18:00Z,27.4847,-97.3181,0.877,1111122 
TCOON,ioos:station:TCOON:013:1,2017-01-07T16:18:00Z,27.4847,-97.3181,0.867,1111122 
TCOON,ioos:station:TCOON:013:1,2017-01-07T17:18:00Z,27.4847,-97.3181,0.856,1111122 
TCOON,ioos:station:TCOON:013:1,2017-01-07T18:18:00Z,27.4847,-97.3181,0.848,1111122 
TCOON,ioos:station:TCOON:013:1,2017-01-07T19:18:00Z,27.4847,-97.3181,0.83,1111122 
TCOON,ioos:station:TCOON:013:1,2017-01-07T20:18:00Z,27.4847,-97.3181,0.817,1111122 
TCOON,ioos:station:TCOON:013:1,2017-01-07T21:18:00Z,27.4847,-97.3181,0.795,1111122 
TCOON,ioos:station:TCOON:013:1,2017-01-07T22:18:00Z,27.4847,-97.3181,0.782,1111122 
TCOON,ioos:station:TCOON:013:1,2017-01-07T23:18:00Z,27.4847,-97.3181,0.77,1111122 
TCOON,ioos:station:TCOON:013:1,2017-01-08T00:18:00Z,27.4847,-97.3181,0.765,1111122 
TCOON,ioos:station:TCOON:013:1,2017-01-08T01:18:00Z,27.4847,-97.3181,0.774,1111122 
TCOON,ioos:station:TCOON:013:1,2017-01-08T02:18:00Z,27.4847,-97.3181,0.783,1111122 
TCOON,ioos:station:TCOON:013:1,2017-01-08T03:18:00Z,27.4847,-97.3181,0.784,1111122 
TCOON,ioos:station:TCOON:013:1,2017-01-08T04:18:00Z,27.4847,-97.3181,0.787,1111122 
TCOON,ioos:station:TCOON:013:1,2017-01-08T05:18:00Z,27.4847,-97.3181,0.79,1111122 
TCOON,ioos:station:TCOON:013:1,2017-01-08T06:18:00Z,27.4847,-97.3181,0.791,1111122 
TCOON,ioos:station:TCOON:013:1,2017-01-08T07:18:00Z,27.4847,-97.3181,0.789,1111122 
TCOON,ioos:station:TCOON:013:1,2017-01-08T08:18:00Z,27.4847,-97.3181,0.789,1111122 
TCOON,ioos:station:TCOON:013:1,2017-01-08T09:18:00Z,27.4847,-97.3181,0.785,1111122 
TCOON,ioos:station:TCOON:013:1,2017-01-08T10:18:00Z,27.4847,-97.3181,0.783,1111122 
TCOON,ioos:station:TCOON:013:1,2017-01-08T11:18:00Z,27.4847,-97.3181,0.78,1111122 
TCOON,ioos:station:TCOON:013:1,2017-01-08T13:54:00Z,27.4847,-97.3181,0.753,1111122 
TCOON,ioos:station:TCOON:013:1,2017-01-08T14:18:00Z,27.4847,-97.3181,0.748,1111122 
TCOON,ioos:station:TCOON:013:1,2017-01-08T15:18:00Z,27.4847,-97.3181,0.741,1111122 
TCOON,ioos:station:TCOON:013:1,2017-01-08T16:18:00Z,27.4847,-97.3181,0.735,1111122 
TCOON,ioos:station:TCOON:013:1,2017-01-08T17:18:00Z,27.4847,-97.3181,0.722,1111122 
TCOON,ioos:station:TCOON:013:1,2017-01-08T18:24:00Z,27.4847,-97.3181,0.715,1111122 
TCOON,ioos:station:TCOON:013:1,2017-01-08T19:18:00Z,27.4847,-97.3181,0.712,1111122 
TCOON,ioos:station:TCOON:013:1,2017-01-08T20:18:00Z,27.4847,-97.3181,0.71,1111122 
TCOON,ioos:station:TCOON:013:1,2017-01-08T21:18:00Z,27.4847,-97.3181,0.713,1111122 
TCOON,ioos:station:TCOON:013:1,2017-01-08T22:18:00Z,27.4847,-97.3181,0.714,1111122 
TCOON,ioos:station:TCOON:013:1,2017-01-08T23:18:00Z,27.4847,-97.3181,0.723,1111122 
TCOON,ioos:station:TCOON:013:1,2017-01-09T00:18:00Z,27.4847,-97.3181,0.723,1111122 
TCOON,ioos:station:TCOON:013:1,2017-01-09T01:18:00Z,27.4847,-97.3181,0.74,1111122 
TCOON,ioos:station:TCOON:013:1,2017-01-09T02:18:00Z,27.4847,-97.3181,0.75,1111122 
TCOON,ioos:station:TCOON:013:1,2017-01-09T03:18:00Z,27.4847,-97.3181,0.767,1111122 
TCOON,ioos:station:TCOON:013:1,2017-01-09T04:18:00Z,27.4847,-97.3181,0.781,1111122 
TCOON,ioos:station:TCOON:013:1,2017-01-09T05:18:00Z,27.4847,-97.3181,0.794,1111122 
TCOON,ioos:station:TCOON:013:1,2017-01-09T06:18:00Z,27.4847,-97.3181,0.806,1111122 
TCOON,ioos:station:TCOON:013:1,2017-01-09T07:18:00Z,27.4847,-97.3181,0.82,1111122 
TCOON,ioos:station:TCOON:013:1,2017-01-09T08:18:00Z,27.4847,-97.3181,0.83,1111122 
TCOON,ioos:station:TCOON:013:1,2017-01-09T09:18:00Z,27.4847,-97.3181,0.833,1111122 
TCOON,ioos:station:TCOON:013:1,2017-01-09T10:18:00Z,27.4847,-97.3181,0.838,1111122 
TCOON,ioos:station:TCOON:013:1,2017-01-09T11:18:00Z,27.4847,-97.3181,0.834,1111122 
TCOON,ioos:station:TCOON:013:1,2017-01-09T12:18:00Z,27.4847,-97.3181,0.829,1111122 
TCOON,ioos:station:TCOON:013:1,2017-01-09T13:18:00Z,27.4847,-97.3181,0.822,1111122 
TCOON,ioos:station:TCOON:013:1,2017-01-09T14:18:00Z,27.4847,-97.3181,0.815,1111122 
TCOON,ioos:station:TCOON:013:1,2017-01-09T15:18:00Z,27.4847,-97.3181,0.812,1111122 
TCOON,ioos:station:TCOON:013:1,2017-01-09T16:18:00Z,27.4847,-97.3181,0.806,1111122 
TCOON,ioos:station:TCOON:013:1,2017-01-09T17:18:00Z,27.4847,-97.3181,0.804,1111122 
TCOON,ioos:station:TCOON:013:1,2017-01-09T18:18:00Z,27.4847,-97.3181,0.802,1111122 
TCOON,ioos:station:TCOON:013:1,2017-01-09T19:18:00Z,27.4847,-97.3181,0.801,1111122 
TCOON,ioos:station:TCOON:013:1,2017-01-09T20:18:00Z,27.4847,-97.3181,0.8,1111122 
TCOON,ioos:station:TCOON:013:1,2017-01-09T21:18:00Z,27.4847,-97.3181,0.794,1111122 
TCOON,ioos:station:TCOON:013:1,2017-01-09T22:18:00Z,27.4847,-97.3181,0.789,1111122 
TCOON,ioos:station:TCOON:013:1,2017-01-09T23:18:00Z,27.4847,-97.3181,0.79,1111122 
TCOON,ioos:station:TCOON:013:1,2017-01-10T00:18:00Z,27.4847,-97.3181,0.79,1111122 
TCOON,ioos:station:TCOON:013:1,2017-01-10T01:18:00Z,27.4847,-97.3181,0.792,1111122 
TCOON,ioos:station:TCOON:013:1,2017-01-10T02:18:00Z,27.4847,-97.3181,0.798,1111122 
TCOON,ioos:station:TCOON:013:1,2017-01-10T03:18:00Z,27.4847,-97.3181,0.804,1111122 
TCOON,ioos:station:TCOON:013:1,2017-01-10T04:24:00Z,27.4847,-97.3181,0.809,1111122 
TCOON,ioos:station:TCOON:013:1,2017-01-10T05:18:00Z,27.4847,-97.3181,0.814,1111122 
TCOON,ioos:station:TCOON:013:1,2017-01-10T06:18:00Z,27.4847,-97.3181,0.819,1111122 
TCOON,ioos:station:TCOON:013:1,2017-01-10T07:18:00Z,27.4847,-97.3181,0.821,1111122 
TCOON,ioos:station:TCOON:013:1,2017-01-10T08:18:00Z,27.4847,-97.3181,0.823,1111122 
TCOON,ioos:station:TCOON:013:1,2017-01-10T09:18:00Z,27.4847,-97.3181,0.827,1111122 
TCOON,ioos:station:TCOON:013:1,2017-01-10T10:18:00Z,27.4847,-97.3181,0.833,1111122 
TCOON,ioos:station:TCOON:013:1,2017-01-10T11:18:00Z,27.4847,-97.3181,0.825,1111122 
TCOON,ioos:station:TCOON:013:1,2017-01-10T12:18:00Z,27.4847,-97.3181,0.818,1111122 
TCOON,ioos:station:TCOON:013:1,2017-01-10T13:18:00Z,27.4847,-97.3181,0.81,1111122 
TCOON,ioos:station:TCOON:013:1,2017-01-10T14:18:00Z,27.4847,-97.3181,0.809,1111122 
TCOON,ioos:station:TCOON:013:1,2017-01-10T15:18:00Z,27.4847,-97.3181,0.806,1111122 
TCOON,ioos:station:TCOON:013:1,2017-01-10T16:18:00Z,27.4847,-97.3181,0.803,1111122 
TCOON,ioos:station:TCOON:013:1,2017-01-10T17:18:00Z,27.4847,-97.3181,0.795,1111122 
TCOON,ioos:station:TCOON:013:1,2017-01-10T18:18:00Z,27.4847,-97.3181,0.79,1111122 
TCOON,ioos:station:TCOON:013:1,2017-01-10T19:18:00Z,27.4847,-97.3181,0.788,1111122 
TCOON,ioos:station:TCOON:013:1,2017-01-10T20:18:00Z,27.4847,-97.3181,0.782,1111122 
TCOON,ioos:station:TCOON:013:1,2017-01-10T21:24:00Z,27.4847,-97.3181,0.778,1111122 
TCOON,ioos:station:TCOON:013:1,2017-01-10T22:36:00Z,27.4847,-97.3181,0.774,1111122 
TCOON,ioos:station:TCOON:013:1,2017-01-10T23:18:00Z,27.4847,-97.3181,0.773,1111122 
TCOON,ioos:station:TCOON:013:1,2017-01-11T00:18:00Z,27.4847,-97.3181,0.774,1111122 
TCOON,ioos:station:TCOON:013:1,2017-01-11T01:18:00Z,27.4847,-97.3181,0.777,1111122 
TCOON,ioos:station:TCOON:013:1,2017-01-11T02:18:00Z,27.4847,-97.3181,0.778,1111122 
TCOON,ioos:station:TCOON:013:1,2017-01-11T03:18:00Z,27.4847,-97.3181,0.779,1111122 
TCOON,ioos:station:TCOON:013:1,2017-01-11T04:18:00Z,27.4847,-97.3181,0.784,1111122 
TCOON,ioos:station:TCOON:013:1,2017-01-11T05:18:00Z,27.4847,-97.3181,0.787,1111122 
TCOON,ioos:station:TCOON:013:1,2017-01-11T06:18:00Z,27.4847,-97.3181,0.795,1111122 
TCOON,ioos:station:TCOON:013:1,2017-01-11T07:18:00Z,27.4847,-97.3181,0.799,1111122 
TCOON,ioos:station:TCOON:013:1,2017-01-11T08:18:00Z,27.4847,-97.3181,0.805,1111122 
TCOON,ioos:station:TCOON:013:1,2017-01-11T09:18:00Z,27.4847,-97.3181,0.806,1111122 
TCOON,ioos:station:TCOON:013:1,2017-01-11T10:18:00Z,27.4847,-97.3181,0.806,1111122 
TCOON,ioos:station:TCOON:013:1,2017-01-11T11:18:00Z,27.4847,-97.3181,0.807,1111122 
TCOON,ioos:station:TCOON:013:1,2017-01-11T12:18:00Z,27.4847,-97.3181,0.806,1111122 
TCOON,ioos:station:TCOON:013:1,2017-01-11T13:18:00Z,27.4847,-97.3181,0.801,1111122 
TCOON,ioos:station:TCOON:013:1,2017-01-11T14:18:00Z,27.4847,-97.3181,0.794,1111122 
TCOON,ioos:station:TCOON:013:1,2017-01-11T15:18:00Z,27.4847,-97.3181,0.788,1111122 
TCOON,ioos:station:TCOON:013:1,2017-01-11T16:18:00Z,27.4847,-97.3181,0.779,1111122 
TCOON,ioos:station:TCOON:013:1,2017-01-11T17:24:00Z,27.4847,-97.3181,0.764,1111122 
TCOON,ioos:station:TCOON:013:1,2017-01-11T18:42:00Z,27.4847,-97.3181,0.757,1111122 
TCOON,ioos:station:TCOON:013:1,2017-01-11T19:18:00Z,27.4847,-97.3181,0.756,1111122 
TCOON,ioos:station:TCOON:013:1,2017-01-11T21:18:00Z,27.4847,-97.3181,0.748,1111122 
TCOON,ioos:station:TCOON:013:1,2017-01-11T22:36:00Z,27.4847,-97.3181,0.742,1111122 
TCOON,ioos:station:TCOON:013:1,2017-01-11T23:24:00Z,27.4847,-97.3181,0.74,1111122 
TCOON,ioos:station:TCOON:013:1,2017-01-12T00:18:00Z,27.4847,-97.3181,0.74,1111122 
TCOON,ioos:station:TCOON:013:1,2017-01-12T01:18:00Z,27.4847,-97.3181,0.743,1111122 
TCOON,ioos:station:TCOON:013:1,2017-01-12T02:18:00Z,27.4847,-97.3181,0.739,1111122 
TCOON,ioos:station:TCOON:013:1,2017-01-12T03:18:00Z,27.4847,-97.3181,0.739,1111122 
TCOON,ioos:station:TCOON:013:1,2017-01-12T04:18:00Z,27.4847,-97.3181,0.742,1111122 
TCOON,ioos:station:TCOON:013:1,2017-01-12T06:00:00Z,27.4847,-97.3181,0.748,1111122 
TCOON,ioos:station:TCOON:013:1,2017-01-12T06:24:00Z,27.4847,-97.3181,0.75,1111122 
TCOON,ioos:station:TCOON:013:1,2017-01-12T07:18:00Z,27.4847,-97.3181,0.753,1111122 
TCOON,ioos:station:TCOON:013:1,2017-01-12T08:30:00Z,27.4847,-97.3181,0.758,1111122 
TCOON,ioos:station:TCOON:013:1,2017-01-12T09:18:00Z,27.4847,-97.3181,0.759,1111122 
TCOON,ioos:station:TCOON:013:1,2017-01-12T10:36:00Z,27.4847,-97.3181,0.768,1111122 
TCOON,ioos:station:TCOON:013:1,2017-01-12T11:18:00Z,27.4847,-97.3181,0.769,1111122 
TCOON,ioos:station:TCOON:013:1,2017-01-12T12:18:00Z,27.4847,-97.3181,0.774,1111122 
TCOON,ioos:station:TCOON:013:1,2017-01-12T13:18:00Z,27.4847,-97.3181,0.779,1111122 
TCOON,ioos:station:TCOON:013:1,2017-01-12T14:18:00Z,27.4847,-97.3181,0.775,1111122 
TCOON,ioos:station:TCOON:013:1,2017-01-12T15:18:00Z,27.4847,-97.3181,0.761,1111122 
TCOON,ioos:station:TCOON:013:1,2017-01-12T16:18:00Z,27.4847,-97.3181,0.757,1111122 
TCOON,ioos:station:TCOON:013:1,2017-01-12T17:18:00Z,27.4847,-97.3181,0.749,1111122 
TCOON,ioos:station:TCOON:013:1,2017-01-12T19:36:00Z,27.4847,-97.3181,0.725,1111122 
TCOON,ioos:station:TCOON:013:1,2017-01-12T21:42:00Z,27.4847,-97.3181,0.707,1111122 
TCOON,ioos:station:TCOON:013:1,2017-01-12T22:18:00Z,27.4847,-97.3181,0.701,1111122 
TCOON,ioos:station:TCOON:013:1,2017-01-12T23:18:00Z,27.4847,-97.3181,0.695,1111122 
TCOON,ioos:station:TCOON:013:1,2017-01-13T00:24:00Z,27.4847,-97.3181,0.697,1111122 
TCOON,ioos:station:TCOON:013:1,2017-01-13T01:18:00Z,27.4847,-97.3181,0.697,1111122 
TCOON,ioos:station:TCOON:013:1,2017-01-13T02:42:00Z,27.4847,-97.3181,0.709,1111122 
TCOON,ioos:station:TCOON:013:1,2017-01-13T03:18:00Z,27.4847,-97.3181,0.716,1111122 
TCOON,ioos:station:TCOON:013:1,2017-01-13T04:24:00Z,27.4847,-97.3181,0.73,1111122 